Year,Month,Day,Hour,Minute,Value (Times are PST for temperature in C)
2005,03,07,00,00,10.90
2005,03,07,00,01,10.90
2005,03,07,00,02,10.90
2005,03,07,00,03,10.90
2005,03,07,00,04,10.90
2005,03,07,00,05,10.90
2005,03,07,00,06,10.90
2005,03,07,00,07,10.90
2005,03,07,00,08,10.90
2005,03,07,00,09,10.90
2005,03,07,00,10,10.90
2005,03,07,00,11,10.80
2005,03,07,00,12,10.70
2005,03,07,00,13,10.70
2005,03,07,00,14,10.70
2005,03,07,00,15,10.70
2005,03,07,00,16,10.70
2005,03,07,00,17,10.80
2005,03,07,00,18,10.80
2005,03,07,00,19,10.90
2005,03,07,00,20,10.80
2005,03,07,00,21,10.80
2005,03,07,00,22,10.80
2005,03,07,00,23,10.80
2005,03,07,00,24,10.90
2005,03,07,00,25,10.80
2005,03,07,00,26,10.80
2005,03,07,00,27,10.80
2005,03,07,00,28,10.80
2005,03,07,00,29,10.80
2005,03,07,00,30,10.70
2005,03,07,00,31,10.70
2005,03,07,00,32,10.70
2005,03,07,00,33,10.60
2005,03,07,00,34,10.60
2005,03,07,00,35,10.70
2005,03,07,00,36,10.70
2005,03,07,00,37,10.80
2005,03,07,00,38,10.80
2005,03,07,00,39,10.80
2005,03,07,00,40,10.80
2005,03,07,00,41,10.70
2005,03,07,00,42,10.60
2005,03,07,00,43,10.40
2005,03,07,00,44,10.40
2005,03,07,00,45,10.40
2005,03,07,00,46,10.50
2005,03,07,00,47,10.50
2005,03,07,00,48,10.60
2005,03,07,00,49,10.60
2005,03,07,00,50,10.60
2005,03,07,00,51,10.60
2005,03,07,00,52,10.60
2005,03,07,00,53,10.60
2005,03,07,00,54,10.60
2005,03,07,00,55,10.70
2005,03,07,00,56,10.70
2005,03,07,00,57,10.70
2005,03,07,00,58,10.70
2005,03,07,00,59,10.70
2005,03,07,01,00,10.70
2005,03,07,01,01,10.70
2005,03,07,01,02,10.70
2005,03,07,01,03,10.70
2005,03,07,01,04,10.70
2005,03,07,01,05,10.60
2005,03,07,01,06,10.60
2005,03,07,01,07,10.70
2005,03,07,01,08,10.70
2005,03,07,01,09,10.80
2005,03,07,01,10,10.80
2005,03,07,01,11,10.80
2005,03,07,01,12,10.70
2005,03,07,01,13,10.50
2005,03,07,01,14,10.30
2005,03,07,01,15,10.20
2005,03,07,01,16,10.10
2005,03,07,01,17,10.10
2005,03,07,01,18,10.00
2005,03,07,01,19,9.90
2005,03,07,01,20,9.90
2005,03,07,01,21,9.90
2005,03,07,01,22,9.80
2005,03,07,01,23,9.80
2005,03,07,01,24,9.70
2005,03,07,01,25,9.70
2005,03,07,01,26,9.80
2005,03,07,01,27,9.90
2005,03,07,01,28,10.00
2005,03,07,01,29,10.10
2005,03,07,01,30,10.10
2005,03,07,01,31,10.10
2005,03,07,01,32,10.10
2005,03,07,01,33,10.10
2005,03,07,01,34,10.10
2005,03,07,01,35,10.10
2005,03,07,01,36,10.10
2005,03,07,01,37,10.20
2005,03,07,01,38,10.20
2005,03,07,01,39,10.30
2005,03,07,01,40,10.30
2005,03,07,01,41,10.30
2005,03,07,01,42,10.30
2005,03,07,01,43,10.40
2005,03,07,01,44,10.30
2005,03,07,01,45,10.20
2005,03,07,01,46,10.20
2005,03,07,01,47,10.20
2005,03,07,01,48,10.30
2005,03,07,01,49,10.40
2005,03,07,01,50,10.40
2005,03,07,01,51,10.40
2005,03,07,01,52,10.30
2005,03,07,01,53,10.30
2005,03,07,01,54,10.30
2005,03,07,01,55,10.20
2005,03,07,01,56,10.20
2005,03,07,01,57,10.20
2005,03,07,01,58,10.20
2005,03,07,01,59,10.30
2005,03,07,02,00,10.30
2005,03,07,02,01,10.30
2005,03,07,02,02,10.40
2005,03,07,02,03,10.30
2005,03,07,02,04,10.30
2005,03,07,02,05,10.30
2005,03,07,02,06,10.30
2005,03,07,02,07,10.30
2005,03,07,02,08,10.30
2005,03,07,02,09,10.40
2005,03,07,02,10,10.40
2005,03,07,02,11,10.40
2005,03,07,02,12,10.50
2005,03,07,02,13,10.50
2005,03,07,02,14,10.40
2005,03,07,02,15,10.40
2005,03,07,02,16,10.40
2005,03,07,02,17,10.30
2005,03,07,02,18,10.20
2005,03,07,02,19,10.20
2005,03,07,02,20,10.20
2005,03,07,02,21,10.10
2005,03,07,02,22,10.10
2005,03,07,02,23,10.10
2005,03,07,02,24,10.10
2005,03,07,02,25,10.10
2005,03,07,02,26,10.10
2005,03,07,02,27,10.00
2005,03,07,02,28,9.90
2005,03,07,02,29,9.90
2005,03,07,02,30,9.90
2005,03,07,02,31,9.90
2005,03,07,02,32,9.90
2005,03,07,02,33,9.90
2005,03,07,02,34,9.90
2005,03,07,02,35,9.90
2005,03,07,02,36,9.90
2005,03,07,02,37,10.00
2005,03,07,02,38,10.10
2005,03,07,02,39,10.10
2005,03,07,02,40,10.10
2005,03,07,02,41,10.10
2005,03,07,02,42,10.10
2005,03,07,02,43,10.10
2005,03,07,02,44,10.10
2005,03,07,02,45,10.10
2005,03,07,02,46,10.10
2005,03,07,02,47,10.10
2005,03,07,02,48,10.00
2005,03,07,02,49,9.90
2005,03,07,02,50,9.90
2005,03,07,02,51,9.80
2005,03,07,02,52,9.70
2005,03,07,02,53,9.70
2005,03,07,02,54,9.70
2005,03,07,02,55,9.70
2005,03,07,02,56,9.50
2005,03,07,02,57,9.50
2005,03,07,02,58,9.50
2005,03,07,02,59,9.40
2005,03,07,03,00,9.40
2005,03,07,03,01,9.40
2005,03,07,03,02,9.40
2005,03,07,03,03,9.30
2005,03,07,03,04,9.40
2005,03,07,03,05,9.50
2005,03,07,03,06,9.50
2005,03,07,03,07,9.60
2005,03,07,03,08,9.70
2005,03,07,03,09,9.70
2005,03,07,03,10,9.60
2005,03,07,03,11,9.60
2005,03,07,03,12,9.50
2005,03,07,03,13,9.60
2005,03,07,03,14,9.50
2005,03,07,03,15,9.60
2005,03,07,03,16,9.60
2005,03,07,03,17,9.60
2005,03,07,03,18,9.60
2005,03,07,03,19,9.60
2005,03,07,03,20,9.60
2005,03,07,03,21,9.50
2005,03,07,03,22,9.50
2005,03,07,03,23,9.60
2005,03,07,03,24,9.60
2005,03,07,03,25,9.50
2005,03,07,03,26,9.50
2005,03,07,03,27,9.50
2005,03,07,03,28,9.50
2005,03,07,03,29,9.40
2005,03,07,03,30,9.40
2005,03,07,03,31,9.40
2005,03,07,03,32,9.40
2005,03,07,03,33,9.40
2005,03,07,03,34,9.30
2005,03,07,03,35,9.30
2005,03,07,03,36,9.30
2005,03,07,03,37,9.30
2005,03,07,03,38,9.30
2005,03,07,03,39,9.30
2005,03,07,03,40,9.30
2005,03,07,03,41,9.40
2005,03,07,03,42,9.40
2005,03,07,03,43,9.40
2005,03,07,03,44,9.40
2005,03,07,03,45,9.40
2005,03,07,03,46,9.40
2005,03,07,03,47,9.40
2005,03,07,03,48,9.40
2005,03,07,03,49,9.50
2005,03,07,03,50,9.50
2005,03,07,03,51,9.50
2005,03,07,03,52,9.50
2005,03,07,03,53,9.50
2005,03,07,03,54,9.60
2005,03,07,03,55,9.70
2005,03,07,03,56,9.70
2005,03,07,03,57,9.70
2005,03,07,03,58,9.70
2005,03,07,03,59,9.70
2005,03,07,04,00,9.80
2005,03,07,04,01,9.80
2005,03,07,04,02,9.80
2005,03,07,04,03,9.90
2005,03,07,04,04,9.90
2005,03,07,04,05,9.90
2005,03,07,04,06,9.90
2005,03,07,04,07,9.90
2005,03,07,04,08,9.90
2005,03,07,04,09,9.90
2005,03,07,04,10,10.10
2005,03,07,04,11,10.10
2005,03,07,04,12,10.10
2005,03,07,04,13,10.10
2005,03,07,04,14,10.10
2005,03,07,04,15,10.10
2005,03,07,04,16,10.10
2005,03,07,04,17,10.10
2005,03,07,04,18,10.10
2005,03,07,04,19,10.10
2005,03,07,04,20,10.10
2005,03,07,04,21,10.20
2005,03,07,04,22,10.20
2005,03,07,04,23,10.20
2005,03,07,04,24,10.10
2005,03,07,04,25,10.10
2005,03,07,04,26,10.20
2005,03,07,04,27,10.30
2005,03,07,04,28,10.30
2005,03,07,04,29,10.30
2005,03,07,04,30,10.30
2005,03,07,04,31,10.40
2005,03,07,04,32,10.30
2005,03,07,04,33,10.40
2005,03,07,04,34,10.30
2005,03,07,04,35,10.30
2005,03,07,04,36,10.30
2005,03,07,04,37,10.30
2005,03,07,04,38,10.30
2005,03,07,04,39,10.40
2005,03,07,04,40,10.40
2005,03,07,04,41,10.50
2005,03,07,04,42,10.60
2005,03,07,04,43,10.60
2005,03,07,04,44,10.70
2005,03,07,04,45,10.70
2005,03,07,04,46,10.60
2005,03,07,04,47,10.60
2005,03,07,04,48,10.60
2005,03,07,04,49,10.60
2005,03,07,04,50,10.60
2005,03,07,04,51,10.60
2005,03,07,04,52,10.70
2005,03,07,04,53,10.70
2005,03,07,04,54,10.70
2005,03,07,04,55,10.60
2005,03,07,04,56,10.70
2005,03,07,04,57,10.80
2005,03,07,04,58,10.80
2005,03,07,04,59,10.90
2005,03,07,05,00,10.80
2005,03,07,05,01,10.80
2005,03,07,05,02,10.80
2005,03,07,05,03,10.70
2005,03,07,05,04,10.80
2005,03,07,05,05,10.80
2005,03,07,05,06,10.90
2005,03,07,05,07,10.90
2005,03,07,05,08,10.90
2005,03,07,05,09,10.90
2005,03,07,05,10,10.90
2005,03,07,05,11,10.90
2005,03,07,05,12,11.00
2005,03,07,05,13,11.10
2005,03,07,05,14,11.10
2005,03,07,05,15,11.20
2005,03,07,05,16,11.20
2005,03,07,05,17,11.20
2005,03,07,05,18,11.30
2005,03,07,05,19,11.20
2005,03,07,05,20,11.30
2005,03,07,05,21,11.30
2005,03,07,05,22,11.30
2005,03,07,05,23,11.40
2005,03,07,05,24,11.40
2005,03,07,05,25,11.40
2005,03,07,05,26,11.40
2005,03,07,05,27,11.50
2005,03,07,05,28,11.50
2005,03,07,05,29,11.70
2005,03,07,05,30,11.70
2005,03,07,05,31,11.80
2005,03,07,05,32,11.80
2005,03,07,05,33,11.80
2005,03,07,05,34,11.80
2005,03,07,05,35,11.80
2005,03,07,05,36,11.80
2005,03,07,05,37,11.80
2005,03,07,05,38,11.70
2005,03,07,05,39,11.70
2005,03,07,05,40,11.70
2005,03,07,05,41,11.70
2005,03,07,05,42,11.70
2005,03,07,05,43,11.60
2005,03,07,05,44,11.60
2005,03,07,05,45,11.60
2005,03,07,05,46,11.60
2005,03,07,05,47,11.60
2005,03,07,05,48,11.60
2005,03,07,05,49,11.60
2005,03,07,05,50,11.50
2005,03,07,05,51,11.40
2005,03,07,05,52,11.30
2005,03,07,05,53,11.20
2005,03,07,05,54,11.20
2005,03,07,05,55,11.10
2005,03,07,05,56,11.10
2005,03,07,05,57,11.10
2005,03,07,05,58,11.10
2005,03,07,05,59,11.10
2005,03,07,06,00,11.10
2005,03,07,06,01,11.10
2005,03,07,06,02,11.10
2005,03,07,06,03,11.10
2005,03,07,06,04,11.10
2005,03,07,06,05,11.10
2005,03,07,06,06,11.10
2005,03,07,06,07,11.00
2005,03,07,06,08,10.90
2005,03,07,06,09,10.90
2005,03,07,06,10,10.90
2005,03,07,06,11,10.90
2005,03,07,06,12,10.90
2005,03,07,06,13,11.10
2005,03,07,06,14,11.20
2005,03,07,06,15,11.30
2005,03,07,06,16,11.40
2005,03,07,06,17,11.40
2005,03,07,06,18,11.50
2005,03,07,06,19,11.60
2005,03,07,06,20,11.60
2005,03,07,06,21,11.60
2005,03,07,06,22,11.70
2005,03,07,06,23,11.70
2005,03,07,06,24,11.80
2005,03,07,06,25,11.80
2005,03,07,06,26,11.70
2005,03,07,06,27,11.60
2005,03,07,06,28,11.50
2005,03,07,06,29,11.40
2005,03,07,06,30,11.40
2005,03,07,06,31,11.30
2005,03,07,06,32,11.20
2005,03,07,06,33,11.10
2005,03,07,06,34,11.10
2005,03,07,06,35,11.10
2005,03,07,06,36,11.10
2005,03,07,06,37,11.10
2005,03,07,06,38,11.10
2005,03,07,06,39,11.10
2005,03,07,06,40,11.10
2005,03,07,06,41,11.10
2005,03,07,06,42,11.20
2005,03,07,06,43,11.20
2005,03,07,06,44,11.10
2005,03,07,06,45,11.10
2005,03,07,06,46,11.00
2005,03,07,06,47,11.00
2005,03,07,06,48,11.00
2005,03,07,06,49,10.90
2005,03,07,06,50,10.90
2005,03,07,06,51,10.90
2005,03,07,06,52,10.90
2005,03,07,06,53,10.90
2005,03,07,06,54,10.90
2005,03,07,06,55,10.90
2005,03,07,06,56,10.80
2005,03,07,06,57,10.80
2005,03,07,06,58,10.80
2005,03,07,06,59,10.80
2005,03,07,07,00,10.70
2005,03,07,07,01,10.70
2005,03,07,07,02,10.70
2005,03,07,07,03,10.70
2005,03,07,07,04,10.70
2005,03,07,07,05,10.70
2005,03,07,07,06,10.70
2005,03,07,07,07,10.80
2005,03,07,07,08,10.90
2005,03,07,07,09,10.90
2005,03,07,07,10,10.90
2005,03,07,07,11,10.90
2005,03,07,07,12,10.90
2005,03,07,07,13,10.90
2005,03,07,07,14,10.90
2005,03,07,07,15,10.90
2005,03,07,07,16,10.90
2005,03,07,07,17,10.80
2005,03,07,07,18,10.80
2005,03,07,07,19,10.80
2005,03,07,07,20,10.90
2005,03,07,07,21,10.90
2005,03,07,07,22,10.90
2005,03,07,07,23,10.90
2005,03,07,07,24,10.90
2005,03,07,07,25,10.90
2005,03,07,07,26,10.90
2005,03,07,07,27,10.80
2005,03,07,07,28,10.80
2005,03,07,07,29,10.70
2005,03,07,07,30,10.70
2005,03,07,07,31,10.70
2005,03,07,07,32,10.70
2005,03,07,07,33,10.70
2005,03,07,07,34,10.80
2005,03,07,07,35,10.80
2005,03,07,07,36,10.90
2005,03,07,07,37,10.90
2005,03,07,07,38,11.00
2005,03,07,07,39,11.10
2005,03,07,07,40,11.10
2005,03,07,07,41,11.10
2005,03,07,07,42,11.10
2005,03,07,07,43,11.10
2005,03,07,07,44,11.10
2005,03,07,07,45,11.20
2005,03,07,07,46,11.20
2005,03,07,07,47,11.20
2005,03,07,07,48,11.30
2005,03,07,07,49,11.30
2005,03,07,07,50,11.30
2005,03,07,07,51,11.20
2005,03,07,07,52,11.20
2005,03,07,07,53,11.20
2005,03,07,07,54,11.20
2005,03,07,07,55,11.30
2005,03,07,07,56,11.30
2005,03,07,07,57,11.30
2005,03,07,07,58,11.30
2005,03,07,07,59,11.20
2005,03,07,08,00,11.10
2005,03,07,08,01,11.10
2005,03,07,08,02,11.10
2005,03,07,08,03,11.10
2005,03,07,08,04,11.00
2005,03,07,08,05,10.90
2005,03,07,08,06,10.80
2005,03,07,08,07,10.80
2005,03,07,08,08,10.80
2005,03,07,08,09,10.90
2005,03,07,08,10,10.90
2005,03,07,08,11,10.90
2005,03,07,08,12,10.90
2005,03,07,08,13,10.80
2005,03,07,08,14,10.70
2005,03,07,08,15,10.60
2005,03,07,08,16,10.60
2005,03,07,08,17,10.60
2005,03,07,08,18,10.60
2005,03,07,08,19,10.50
2005,03,07,08,20,10.50
2005,03,07,08,21,10.60
2005,03,07,08,22,10.60
2005,03,07,08,23,10.60
2005,03,07,08,24,10.60
2005,03,07,08,25,10.60
2005,03,07,08,26,10.60
2005,03,07,08,27,10.60
2005,03,07,08,28,10.60
2005,03,07,08,29,10.70
2005,03,07,08,30,10.70
2005,03,07,08,31,10.80
2005,03,07,08,32,10.80
2005,03,07,08,33,10.90
2005,03,07,08,34,10.90
2005,03,07,08,35,10.80
2005,03,07,08,36,10.80
2005,03,07,08,37,10.80
2005,03,07,08,38,10.80
2005,03,07,08,39,10.90
2005,03,07,08,40,10.90
2005,03,07,08,41,10.90
2005,03,07,08,42,10.90
2005,03,07,08,43,10.90
2005,03,07,08,44,11.00
2005,03,07,08,45,11.10
2005,03,07,08,46,11.10
2005,03,07,08,47,11.20
2005,03,07,08,48,11.20
2005,03,07,08,49,11.10
2005,03,07,08,50,11.10
2005,03,07,08,51,11.10
2005,03,07,08,52,11.10
2005,03,07,08,53,11.10
2005,03,07,08,54,11.10
2005,03,07,08,55,11.10
2005,03,07,08,56,11.10
2005,03,07,08,57,11.00
2005,03,07,08,58,10.90
2005,03,07,08,59,10.90
2005,03,07,09,00,10.90
2005,03,07,09,01,11.00
2005,03,07,09,02,10.90
2005,03,07,09,03,11.00
2005,03,07,09,04,10.90
2005,03,07,09,05,10.80
2005,03,07,09,06,10.80
2005,03,07,09,07,10.70
2005,03,07,09,08,10.70
2005,03,07,09,09,10.70
2005,03,07,09,10,10.80
2005,03,07,09,11,10.80
2005,03,07,09,12,10.90
2005,03,07,09,13,10.90
2005,03,07,09,14,11.00
2005,03,07,09,15,11.00
2005,03,07,09,16,11.00
2005,03,07,09,17,11.10
2005,03,07,09,18,11.20
2005,03,07,09,19,11.10
2005,03,07,09,20,11.20
2005,03,07,09,21,11.30
2005,03,07,09,22,11.30
2005,03,07,09,23,11.40
2005,03,07,09,24,11.40
2005,03,07,09,25,11.40
2005,03,07,09,26,11.50
2005,03,07,09,27,11.60
2005,03,07,09,28,11.60
2005,03,07,09,29,11.60
2005,03,07,09,30,11.60
2005,03,07,09,31,11.70
2005,03,07,09,32,11.80
2005,03,07,09,33,12.00
2005,03,07,09,34,12.00
2005,03,07,09,35,12.10
2005,03,07,09,36,12.20
2005,03,07,09,37,12.30
2005,03,07,09,38,12.50
2005,03,07,09,39,12.60
2005,03,07,09,40,12.70
2005,03,07,09,41,12.90
2005,03,07,09,42,12.90
2005,03,07,09,43,13.00
2005,03,07,09,44,13.10
2005,03,07,09,45,13.10
2005,03,07,09,46,13.20
2005,03,07,09,47,13.30
2005,03,07,09,48,13.30
2005,03,07,09,49,13.40
2005,03,07,09,50,13.50
2005,03,07,09,51,13.50
2005,03,07,09,52,13.50
2005,03,07,09,53,13.60
2005,03,07,09,54,13.70
2005,03,07,09,55,13.80
2005,03,07,09,56,13.90
2005,03,07,09,57,14.00
2005,03,07,09,58,14.10
2005,03,07,09,59,14.00
2005,03,07,10,00,14.00
2005,03,07,10,01,14.00
2005,03,07,10,02,13.90
2005,03,07,10,03,14.00
2005,03,07,10,04,14.00
2005,03,07,10,05,14.10
2005,03,07,10,06,14.00
2005,03,07,10,07,14.00
2005,03,07,10,08,14.00
2005,03,07,10,09,13.90
2005,03,07,10,10,13.80
2005,03,07,10,11,13.70
2005,03,07,10,12,13.60
2005,03,07,10,13,13.70
2005,03,07,10,14,13.70
2005,03,07,10,15,13.90
2005,03,07,10,16,14.00
2005,03,07,10,17,14.10
2005,03,07,10,18,14.20
2005,03,07,10,19,14.20
2005,03,07,10,20,14.30
2005,03,07,10,21,14.50
2005,03,07,10,22,14.40
2005,03,07,10,23,14.60
2005,03,07,10,24,14.70
2005,03,07,10,25,14.80
2005,03,07,10,26,14.80
2005,03,07,10,27,14.80
2005,03,07,10,28,14.80
2005,03,07,10,29,15.00
2005,03,07,10,30,15.10
2005,03,07,10,31,15.10
2005,03,07,10,32,15.10
2005,03,07,10,33,15.20
2005,03,07,10,34,15.30
2005,03,07,10,35,15.30
2005,03,07,10,36,15.30
2005,03,07,10,37,15.30
2005,03,07,10,38,15.40
2005,03,07,10,39,15.40
2005,03,07,10,40,15.50
2005,03,07,10,41,15.60
2005,03,07,10,42,15.60
2005,03,07,10,43,15.60
2005,03,07,10,44,15.60
2005,03,07,10,45,15.60
2005,03,07,10,46,15.70
2005,03,07,10,47,15.80
2005,03,07,10,48,15.80
2005,03,07,10,49,15.70
2005,03,07,10,50,15.80
2005,03,07,10,51,15.90
2005,03,07,10,52,16.00
2005,03,07,10,53,15.90
2005,03,07,10,54,16.10
2005,03,07,10,55,16.10
2005,03,07,10,56,16.20
2005,03,07,10,57,16.30
2005,03,07,10,58,16.40
2005,03,07,10,59,16.40
2005,03,07,11,00,16.50
2005,03,07,11,01,16.60
2005,03,07,11,02,16.60
2005,03,07,11,03,16.50
2005,03,07,11,04,16.50
2005,03,07,11,05,16.50
2005,03,07,11,06,16.60
2005,03,07,11,07,16.70
2005,03,07,11,08,16.70
2005,03,07,11,09,16.80
2005,03,07,11,10,17.00
2005,03,07,11,11,17.00
2005,03,07,11,12,17.00
2005,03,07,11,13,17.10
2005,03,07,11,14,17.10
2005,03,07,11,15,17.10
2005,03,07,11,16,17.20
2005,03,07,11,17,17.30
2005,03,07,11,18,17.30
2005,03,07,11,19,17.20
2005,03,07,11,20,17.10
2005,03,07,11,21,17.10
2005,03,07,11,22,16.90
2005,03,07,11,23,16.80
2005,03,07,11,24,16.80
2005,03,07,11,25,16.80
2005,03,07,11,26,16.80
2005,03,07,11,27,16.90
2005,03,07,11,28,17.00
2005,03,07,11,29,17.00
2005,03,07,11,30,17.00
2005,03,07,11,31,17.00
2005,03,07,11,32,16.90
2005,03,07,11,33,16.80
2005,03,07,11,34,16.90
2005,03,07,11,35,16.90
2005,03,07,11,36,16.70
2005,03,07,11,37,16.80
2005,03,07,11,38,16.90
2005,03,07,11,39,16.80
2005,03,07,11,40,17.10
2005,03,07,11,41,17.20
2005,03,07,11,42,17.30
2005,03,07,11,43,17.30
2005,03,07,11,44,17.30
2005,03,07,11,45,17.30
2005,03,07,11,46,17.30
2005,03,07,11,47,17.20
2005,03,07,11,48,17.30
2005,03,07,11,49,17.10
2005,03,07,11,50,17.20
2005,03,07,11,51,17.20
2005,03,07,11,52,17.20
2005,03,07,11,53,17.30
2005,03,07,11,54,17.40
2005,03,07,11,55,17.40
2005,03,07,11,56,17.50
2005,03,07,11,57,17.60
2005,03,07,11,58,17.50
2005,03,07,11,59,17.50
2005,03,07,12,00,17.60
2005,03,07,12,01,17.60
2005,03,07,12,02,17.50
2005,03,07,12,03,17.50
2005,03,07,12,04,17.70
2005,03,07,12,05,17.80
2005,03,07,12,06,17.80
2005,03,07,12,07,17.80
2005,03,07,12,08,18.00
2005,03,07,12,09,18.00
2005,03,07,12,10,18.10
2005,03,07,12,11,18.20
2005,03,07,12,12,18.20
2005,03,07,12,13,18.10
2005,03,07,12,14,18.20
2005,03,07,12,15,18.20
2005,03,07,12,16,18.20
2005,03,07,12,17,18.10
2005,03,07,12,18,18.10
2005,03,07,12,19,18.10
2005,03,07,12,20,18.20
2005,03,07,12,21,18.30
2005,03,07,12,22,18.30
2005,03,07,12,23,18.30
2005,03,07,12,24,18.30
2005,03,07,12,25,18.40
2005,03,07,12,26,18.40
2005,03,07,12,27,18.30
2005,03,07,12,28,18.30
2005,03,07,12,29,18.30
2005,03,07,12,30,18.40
2005,03,07,12,31,18.40
2005,03,07,12,32,18.40
2005,03,07,12,33,18.30
2005,03,07,12,34,18.20
2005,03,07,12,35,18.00
2005,03,07,12,36,18.00
2005,03,07,12,37,18.10
2005,03,07,12,38,18.20
2005,03,07,12,39,18.20
2005,03,07,12,40,18.00
2005,03,07,12,41,17.80
2005,03,07,12,42,17.60
2005,03,07,12,43,17.40
2005,03,07,12,44,17.10
2005,03,07,12,45,16.90
2005,03,07,12,46,16.70
2005,03,07,12,47,16.60
2005,03,07,12,48,16.50
2005,03,07,12,49,16.40
2005,03,07,12,50,16.30
2005,03,07,12,51,16.10
2005,03,07,12,52,15.90
2005,03,07,12,53,15.80
2005,03,07,12,54,15.60
2005,03,07,12,55,15.50
2005,03,07,12,56,15.40
2005,03,07,12,57,15.30
2005,03,07,12,58,15.20
2005,03,07,12,59,15.10
2005,03,07,13,00,15.00
2005,03,07,13,01,15.00
2005,03,07,13,02,15.00
2005,03,07,13,03,14.90
2005,03,07,13,04,14.80
2005,03,07,13,05,14.80
2005,03,07,13,06,14.80
2005,03,07,13,07,14.70
2005,03,07,13,08,14.70
2005,03,07,13,09,14.70
2005,03,07,13,10,14.80
2005,03,07,13,11,14.90
2005,03,07,13,12,15.00
2005,03,07,13,13,15.10
2005,03,07,13,14,15.20
2005,03,07,13,15,15.20
2005,03,07,13,16,15.20
2005,03,07,13,17,15.20
2005,03,07,13,18,15.20
2005,03,07,13,19,15.20
2005,03,07,13,20,15.20
2005,03,07,13,21,15.20
2005,03,07,13,22,15.20
2005,03,07,13,23,15.30
2005,03,07,13,24,15.30
2005,03,07,13,25,15.30
2005,03,07,13,26,15.30
2005,03,07,13,27,15.40
2005,03,07,13,28,15.50
2005,03,07,13,29,15.50
2005,03,07,13,30,15.60
2005,03,07,13,31,15.60
2005,03,07,13,32,15.70
2005,03,07,13,33,15.70
2005,03,07,13,34,15.60
2005,03,07,13,35,15.70
2005,03,07,13,36,15.70
2005,03,07,13,37,15.80
2005,03,07,13,38,15.80
2005,03,07,13,39,15.90
2005,03,07,13,40,16.00
2005,03,07,13,41,16.10
2005,03,07,13,42,16.00
2005,03,07,13,43,16.00
2005,03,07,13,44,16.10
2005,03,07,13,45,16.10
2005,03,07,13,46,16.10
2005,03,07,13,47,16.20
2005,03,07,13,48,16.20
2005,03,07,13,49,16.20
2005,03,07,13,50,16.20
2005,03,07,13,51,16.20
2005,03,07,13,52,16.30
2005,03,07,13,53,16.30
2005,03,07,13,54,16.20
2005,03,07,13,55,16.10
2005,03,07,13,56,16.20
2005,03,07,13,57,16.20
2005,03,07,13,58,16.20
2005,03,07,13,59,16.10
2005,03,07,14,00,16.00
2005,03,07,14,01,15.90
2005,03,07,14,02,15.70
2005,03,07,14,03,15.60
2005,03,07,14,04,15.40
2005,03,07,14,05,15.40
2005,03,07,14,06,15.50
2005,03,07,14,07,15.50
2005,03,07,14,08,15.50
2005,03,07,14,09,15.50
2005,03,07,14,10,15.50
2005,03,07,14,11,15.50
2005,03,07,14,12,15.50
2005,03,07,14,13,15.50
2005,03,07,14,14,15.40
2005,03,07,14,15,15.30
2005,03,07,14,16,15.30
2005,03,07,14,17,15.30
2005,03,07,14,18,15.40
2005,03,07,14,19,15.40
2005,03,07,14,20,15.50
2005,03,07,14,21,15.50
2005,03,07,14,22,15.60
2005,03,07,14,23,15.50
2005,03,07,14,24,15.40
2005,03,07,14,25,15.40
2005,03,07,14,26,15.40
2005,03,07,14,27,15.30
2005,03,07,14,28,15.30
2005,03,07,14,29,15.40
2005,03,07,14,30,15.30
2005,03,07,14,31,15.30
2005,03,07,14,32,15.30
2005,03,07,14,33,15.20
2005,03,07,14,34,15.10
2005,03,07,14,35,15.00
2005,03,07,14,36,15.00
2005,03,07,14,37,14.80
2005,03,07,14,38,14.70
2005,03,07,14,39,14.50
2005,03,07,14,40,14.50
2005,03,07,14,41,14.40
2005,03,07,14,42,14.30
2005,03,07,14,43,14.30
2005,03,07,14,44,14.20
2005,03,07,14,45,14.10
2005,03,07,14,46,14.10
2005,03,07,14,47,14.00
2005,03,07,14,48,13.90
2005,03,07,14,49,13.80
2005,03,07,14,50,13.60
2005,03,07,14,51,13.50
2005,03,07,14,52,13.40
2005,03,07,14,53,13.20
2005,03,07,14,54,13.20
2005,03,07,14,55,13.10
2005,03,07,14,56,13.00
2005,03,07,14,57,13.00
2005,03,07,14,58,12.90
2005,03,07,14,59,12.90
2005,03,07,15,00,13.00
2005,03,07,15,01,13.00
2005,03,07,15,02,13.00
2005,03,07,15,03,13.00
2005,03,07,15,04,13.10
2005,03,07,15,05,13.20
2005,03,07,15,06,13.20
2005,03,07,15,07,13.30
2005,03,07,15,08,13.20
2005,03,07,15,09,13.20
2005,03,07,15,10,13.10
2005,03,07,15,11,13.10
2005,03,07,15,12,13.20
2005,03,07,15,13,13.10
2005,03,07,15,14,13.20
2005,03,07,15,15,13.10
2005,03,07,15,16,13.10
2005,03,07,15,17,13.10
2005,03,07,15,18,13.00
2005,03,07,15,19,13.00
2005,03,07,15,20,12.90
2005,03,07,15,21,12.90
2005,03,07,15,22,12.90
2005,03,07,15,23,13.00
2005,03,07,15,24,13.10
2005,03,07,15,25,13.10
2005,03,07,15,26,13.10
2005,03,07,15,27,13.00
2005,03,07,15,28,13.00
2005,03,07,15,29,13.00
2005,03,07,15,30,13.00
2005,03,07,15,31,12.90
2005,03,07,15,32,12.90
2005,03,07,15,33,12.90
2005,03,07,15,34,12.70
2005,03,07,15,35,12.50
2005,03,07,15,36,12.40
2005,03,07,15,37,12.30
2005,03,07,15,38,12.30
2005,03,07,15,39,12.20
2005,03,07,15,40,12.20
2005,03,07,15,41,12.20
2005,03,07,15,42,12.20
2005,03,07,15,43,12.20
2005,03,07,15,44,12.10
2005,03,07,15,45,12.10
2005,03,07,15,46,12.10
2005,03,07,15,47,12.30
2005,03,07,15,48,12.50
2005,03,07,15,49,12.60
2005,03,07,15,50,12.70
2005,03,07,15,51,12.80
2005,03,07,15,52,12.80
2005,03,07,15,53,12.80
2005,03,07,15,54,12.90
2005,03,07,15,55,13.00
2005,03,07,15,56,13.10
2005,03,07,15,57,13.20
2005,03,07,15,58,13.30
2005,03,07,15,59,13.30
2005,03,07,16,00,13.40
2005,03,07,16,01,13.40
2005,03,07,16,02,13.40
2005,03,07,16,03,13.50
2005,03,07,16,04,13.50
2005,03,07,16,05,13.50
2005,03,07,16,06,13.60
2005,03,07,16,07,13.70
2005,03,07,16,08,13.70
2005,03,07,16,09,13.70
2005,03,07,16,10,13.60
2005,03,07,16,11,13.60
2005,03,07,16,12,13.50
2005,03,07,16,13,13.50
2005,03,07,16,14,13.50
2005,03,07,16,15,13.40
2005,03,07,16,16,13.30
2005,03,07,16,17,13.30
2005,03,07,16,18,13.30
2005,03,07,16,19,13.30
2005,03,07,16,20,13.30
2005,03,07,16,21,13.30
2005,03,07,16,22,13.30
2005,03,07,16,23,13.30
2005,03,07,16,24,13.30
2005,03,07,16,25,13.30
2005,03,07,16,26,13.30
2005,03,07,16,27,13.40
2005,03,07,16,28,13.30
2005,03,07,16,29,13.30
2005,03,07,16,30,13.30
2005,03,07,16,31,13.30
2005,03,07,16,32,13.30
2005,03,07,16,33,13.30
2005,03,07,16,34,13.30
2005,03,07,16,35,13.30
2005,03,07,16,36,13.30
2005,03,07,16,37,13.30
2005,03,07,16,38,13.30
2005,03,07,16,39,13.30
2005,03,07,16,40,13.30
2005,03,07,16,41,13.30
2005,03,07,16,42,13.40
2005,03,07,16,43,13.40
2005,03,07,16,44,13.30
2005,03,07,16,45,13.30
2005,03,07,16,46,13.30
2005,03,07,16,47,13.30
2005,03,07,16,48,13.30
2005,03,07,16,49,13.30
2005,03,07,16,50,13.30
2005,03,07,16,51,13.30
2005,03,07,16,52,13.20
2005,03,07,16,53,13.20
2005,03,07,16,54,13.20
2005,03,07,16,55,13.20
2005,03,07,16,56,13.20
2005,03,07,16,57,13.20
2005,03,07,16,58,13.10
2005,03,07,16,59,13.20
2005,03,07,17,00,13.20
2005,03,07,17,01,13.20
2005,03,07,17,02,13.10
2005,03,07,17,03,13.00
2005,03,07,17,04,12.90
2005,03,07,17,05,12.80
2005,03,07,17,06,12.60
2005,03,07,17,07,12.50
2005,03,07,17,08,12.40
2005,03,07,17,09,12.30
2005,03,07,17,10,12.20
2005,03,07,17,11,12.10
2005,03,07,17,12,12.10
2005,03,07,17,13,12.00
2005,03,07,17,14,11.90
2005,03,07,17,15,11.90
2005,03,07,17,16,11.80
2005,03,07,17,17,11.80
2005,03,07,17,18,11.70
2005,03,07,17,19,11.70
2005,03,07,17,20,11.60
2005,03,07,17,21,11.60
2005,03,07,17,22,11.60
2005,03,07,17,23,11.60